Theta_e
340 334 319 327 334 336 337 336 335 330 327 324 323 322 322 324 330 330 328 329 328 330 331 330 328 326 328 326 322 327 328 328 326
339 338 337 326 325 333 334 336 335 333 329 326 324 323 321 324 330 329 329 329 322 320 327 330 327 328 327 325 323 326 322 323 324
339 339 338 338 334 323 330 333 333 333 330 327 325 324 322 322 330 330 329 329 327 326 329 330 327 322 327 329 329 326 323 322 321
337 338 338 338 339 337 328 330 333 333 332 329 327 325 324 324 329 329 328 325 328 327 327 325 328 329 328 325 327 323 321 321 321
338 338 337 337 338 338 337 333 327 332 333 332 330 327 325 324 329 329 328 321 325 328 329 328 326 327 328 325 322 320 321 320 321
339 339 338 337 338 337 336 336 334 327 331 333 332 331 327 331 330 329 326 321 323 324 326 328 328 329 327 324 320 320 320 320 320
338 340 340 338 337 337 336 336 336 334 332 334 332 333 332 332 331 329 323 321 321 323 326 323 323 325 325 320 319 319 319 319 319
329 333 336 340 339 338 337 337 337 335 337 337 338 335 333 333 332 329 322 321 320 322 326 327 325 320 323 321 319 319 319 319 319
321 322 325 329 331 338 339 339 338 338 337 338 337 337 336 335 332 331 326 321 320 320 322 326 328 324 320 326 323 319 318 318 318
311 315 318 319 324 327 330 335 338 339 338 338 338 338 337 337 335 332 331 326 321 320 320 322 328 327 324 320 325 319 318 318 318
307 308 309 311 314 321 327 329 331 336 338 338 338 338 336 337 337 335 332 331 325 321 320 321 325 329 329 319 325 327 317 317 318
308 308 307 307 308 310 313 321 327 330 331 334 335 336 336 336 336 335 334 332 331 327 321 320 321 324 329 330 323 327 326 318 318
309 308 308 308 308 308 310 312 317 323 329 332 332 333 334 335 335 336 335 334 331 331 328 322 320 321 324 329 329 328 328 327 318
312 311 310 309 309 309 309 310 312 315 318 322 327 331 331 332 335 335 334 335 333 330 331 329 324 320 322 324 327 328 326 328 328
313 313 312 312 312 311 310 310 312 313 314 315 317 321 325 328 328 331 334 336 334 334 331 332 330 328 321 322 324 326 328 326 327
312 313 312 312 311 312 312 312 312 313 314 314 315 315 317 320 324 327 328 331 332 334 334 332 332 331 327 322 322 324 325 327 326
308 311 312 312 311 311 311 312 312 312 313 313 314 314 314 315 318 320 321 319 325 321 327 332 332 332 331 329 320 321 324 325 325
297 302 310 310 311 311 311 311 311 312 312 313 313 314 314 313 314 319 322 326 326 322 318 322 331 332 332 332 331 323 323 324 325
308 306 303 309 310 311 311 311 311 311 312 312 312 313 313 314 315 315 321 325 325 329 329 325 322 329 330 333 332 331 326 325 326
304 304 304 307 308 309 310 310 311 311 311 312 312 312 313 314 314 315 315 317 322 324 325 330 329 328 331 331 331 332 329 328 327
Wind_Speed
6 4 5 5 5 7 8 8 7 6 6 5 4 3 3 2 2 2 5 4 8 10 10 5 4 4 10 6 7 9 10 9 8
9 7 6 6 8 8 9 10 9 8 8 8 7 6 5 4 4 3 4 5 7 8 13 9 9 8 7 8 8 8 6 7 7
11 11 10 9 9 9 10 12 11 10 10 10 10 9 7 6 7 6 5 7 3 5 10 10 6 10 8 10 8 7 7 7 6
14 13 12 11 12 11 11 13 13 13 12 12 13 12 11 9 9 8 7 8 8 6 9 10 11 9 8 9 8 8 8 7 6
16 16 16 14 14 14 14 14 14 15 15 14 15 15 15 13 11 11 10 11 10 13 12 12 13 13 12 11 10 9 7 6 6
17 17 17 17 18 17 17 16 17 16 17 18 18 17 18 14 14 13 15 13 12 14 15 15 14 14 14 13 11 10 9 8 7
20 21 21 21 21 21 21 20 18 19 18 18 20 23 18 17 17 16 18 16 15 15 15 16 18 19 16 15 14 13 12 10 9
23 24 23 24 23 24 24 24 23 21 19 19 18 19 18 19 19 20 21 19 19 18 17 19 16 19 20 18 17 16 15 14 12
28 27 25 26 28 26 25 26 25 23 22 21 21 20 21 20 21 21 25 23 23 21 20 21 21 19 20 21 21 19 18 16 15
31 31 31 28 24 26 27 28 27 28 28 28 25 24 24 24 23 22 28 26 26 25 24 23 25 24 23 25 24 22 21 20 18
33 33 33 32 30 23 21 23 25 28 29 29 29 30 28 27 26 25 25 29 30 30 28 27 26 28 26 25 26 24 24 23 21
34 35 35 35 34 33 29 24 22 23 25 29 29 31 32 32 33 30 26 27 32 33 33 32 30 29 30 27 27 27 26 26 25
36 37 37 36 36 35 31 27 25 24 25 24 26 31 34 33 32 34 35 30 31 35 36 35 34 32 32 32 29 28 28 28 27
32 35 37 36 36 36 35 32 28 27 26 26 27 27 28 34 35 37 35 39 37 36 39 37 36 36 35 35 34 32 30 30 29
26 28 29 29 30 34 38 35 28 27 27 27 28 27 27 29 35 36 33 40 41 40 41 40 40 38 40 38 38 36 33 31 32
23 26 26 25 24 23 24 26 26 26 23 24 27 32 34 34 32 30 34 41 40 39 41 47 45 41 41 43 41 40 38 35 33
22 22 22 22 21 20 19 22 24 25 22 24 22 27 30 33 33 37 40 44 42 43 41 46 48 48 46 44 45 43 41 39 37
22 22 22 20 20 18 16 17 19 23 23 21 21 15 25 23 24 28 31 32 35 42 44 44 44 48 49 54 47 43 43 41 40
25 24 21 19 17 16 15 15 16 18 21 22 24 28 31 31 30 28 25 26 33 34 39 42 41 45 46 56 48 45 43 43 41
20 20 16 17 15 16 18 18 16 17 19 21 21 22 24 26 31 34 34 33 28 28 31 37 38 40 44 49 50 52 48 47 43
Wind_Direction
272 279 258 259 254 254 249 247 264 271 275 268 262 269 274 273 228 174 215 161 187 181 168 193 150 150 175 161 151 142 149 143 132
270 270 280 270 260 261 257 252 259 265 266 264 258 263 271 252 244 233 222 221 231 214 177 209 208 187 183 160 160 153 150 141 141
268 272 277 277 271 264 262 259 258 261 262 262 260 257 264 261 230 235 238 230 245 228 181 201 221 209 190 167 180 168 168 165 157
267 266 265 270 278 274 266 261 259 259 260 260 262 259 258 248 239 237 236 239 211 236 231 230 221 209 204 183 200 188 185 178 177
267 266 267 266 270 277 273 263 261 261 259 259 260 260 258 255 246 241 234 239 217 226 231 249 229 214 205 217 201 198 192 192 192
271 269 268 266 266 267 271 271 263 260 260 258 257 257 253 249 243 240 247 243 236 225 220 233 242 226 219 219 213 209 207 209 214
268 269 267 268 268 267 269 267 264 257 251 259 255 251 246 243 244 242 249 246 241 238 231 230 233 239 231 225 221 221 222 221 224
272 270 268 267 267 264 265 265 260 253 245 241 244 251 243 244 245 243 251 247 244 241 236 244 246 242 240 232 227 228 228 228 229
270 270 270 269 267 264 263 264 262 258 249 244 246 244 244 243 245 247 255 247 246 244 240 240 247 250 242 233 235 233 233 235 234
269 267 265 265 265 265 261 260 260 258 258 257 247 245 246 246 248 249 255 251 247 245 243 236 243 249 250 235 233 234 235 235 237
272 270 269 265 263 262 263 261 261 257 255 257 259 256 249 247 246 247 252 256 251 247 244 241 236 244 250 245 235 235 235 237 238
273 272 270 270 268 265 261 261 261 259 256 256 257 260 259 255 251 250 249 254 253 251 247 243 240 237 243 247 250 236 237 236 237
271 271 271 271 269 267 264 261 257 255 255 258 256 254 258 261 255 254 253 249 249 251 249 247 244 241 241 242 245 250 242 238 237
272 271 270 270 268 264 264 262 258 256 256 255 257 259 263 257 263 264 259 255 250 250 250 249 248 246 243 243 242 243 247 243 242
279 276 273 271 267 265 261 260 257 257 256 257 257 258 258 259 259 256 262 255 255 253 253 250 246 247 245 242 243 242 242 243 243
287 284 282 279 273 268 261 258 257 253 254 260 261 261 257 254 255 261 259 255 257 262 259 250 249 249 247 243 241 241 241 242 243
288 283 281 280 279 276 268 256 255 256 253 254 263 269 268 260 257 254 252 258 259 262 262 253 253 247 247 248 240 240 240 240 242
292 285 277 277 275 274 272 263 253 256 253 252 249 266 259 273 263 257 255 257 258 261 259 259 255 252 248 249 246 240 241 240 241
290 279 275 270 268 267 268 267 262 258 258 254 253 254 260 268 274 260 261 257 252 253 256 256 254 248 255 247 247 245 237 240 238
309 283 278 270 268 268 268 265 263 257 255 253 256 259 263 263 261 268 262 260 260 260 258 254 261 257 250 245 246 246 241 234 238